Flag for Germany Weather past 2 weeks in Lage, North Rhine-Westphalia, Germany

Now
67 °F

Overcast.


Feels Like: 67 °F
Forecast: 56 / 80 °F
Wind: 3 mph from Northeast

Location: Bad Lippspringe

Current Time: Jul 25, 2014 at 6:20:13 PM

Latest Report: Jul 25, 2014 at 6:00 PM


Visibility: 11 mi

Pressure: 29.93 "Hg

Humidity: 78%

Dew point: 60 °F

Location of LageLocation

Historic Weather in Lage — Graph

°F

Lage temperature yesterday

Maximum temperature yesterday: 77 °F (at 3:00 PM)
Minimum temperature yesterday: 62 °F (at 6:00 AM)
Average temperature yesterday: 68 °F

Past Weeks' High & Low Weather Summary

 TemperatureHumidityPressure
High90 °F (Jul 19, 4:00 PM)98% (Jul 12, 4:00 AM)30.19 "Hg (Jul 12, 4:00 AM)
Low52 °F (Jul 13, 4:00 AM)28% (Jul 19, 3:00 PM)29.70 "Hg (Jul 13, 7:00 PM)
Average69 °F72%29.97 "Hg
* Reported Jul 10 5:00 PM — Jul 25 5:00 PM, Lage, Weather by CustomWeather, © 2014

Note: Actual official high and low records may vary slightly from our data, if they occured in-between our weather recording intervals... More about our weather records

Advertising

Lage weather history for previous 24 hours

 ConditionsComfort  
Time TempWeatherWind HumidityBarometerVisibility
5:00 PM
Jul 25
68 °FOvercast.3 mph76%29.94 "Hg17 mi
4:00 PM67 °FOvercast.3 mph78%29.95 "Hg14 mi
3:00 PM67 °FOvercast.1 mph78%29.95 "Hg14 mi
2:00 PM65 °FOvercast.1 mph84%29.97 "Hg14 mi
1:00 PM63 °FLight rain. Overcast.2 mph87%29.97 "Hg9 mi
12:00 PM63 °FOvercast.3 mph87%29.97 "Hg11 mi
11:00 AM62 °FOvercast.2 mph89%29.98 "Hg10 mi
10:00 AM62 °FDrizzle. Overcast.2 mph92%29.98 "Hg14 mi
9:00 AM62 °FDrizzle. Overcast.2 mph93%29.98 "Hg3 mi
8:00 AM61 °FDrizzle. Overcast.2 mph91%29.98 "Hg7 mi
7:00 AM61 °FDrizzle. Overcast.3 mph90%29.98 "Hg6 mi
6:00 AM61 °FOvercast.3 mph88%29.98 "Hg12 mi
5:00 AM61 °FOvercast.2 mph88%29.99 "Hg11 mi
4:00 AM62 °FOvercast.2 mph83%29.99 "Hg13 mi
3:00 AM62 °FOvercast.3 mph83%30.00 "Hg14 mi
2:00 AM62 °FOvercast.5 mph83%30.01 "Hg17 mi
1:00 AM62 °FOvercast.3 mph84%30.01 "Hg14 mi
12:00 AM63 °FOvercast.3 mph78%30.01 "Hg15 mi
11:00 PM
Jul 24
62 °FOvercast.8 mph78%30.02 "Hg17 mi
10:00 PM63 °FLight rain. Overcast.8 mph73%30.02 "Hg16 mi
9:00 PM67 °FOvercast.6 mph72%30.02 "Hg15 mi
8:00 PM67 °FOvercast.5 mph71%29.98 "Hg15 mi
7:00 PM67 °FOvercast.5 mph79%29.98 "Hg12 mi
6:00 PM64 °FLight rain. Overcast.6 mph84%29.99 "Hg9 mi
Weather by CustomWeather, © 2014

See weather overviewHow to use our weather pages